Retour au catalogue

CHINASAT 6A

ActifCommunicationsGEO
NORAD 37150·PAYLOAD·🇨🇳 China

Lancé Sep 4, 2010 depuis Xichang Satellite Launch Center

Loading…

TLE

FraisSource: Space-Track

Époque: Sep 14, 2026, 13:35 UTC

1 37150U 10042A   26257.56651153  .00000108  00000-0  00000-0 0  9996
2 37150   4.4503  76.0620 0001648 171.0232 173.9559  0.99697333 58764

Suivez CHINASAT 6A en temps réel avec AllMySat

Download on the App Store